Middlesboro, KY

8:59 AM CST on December 11, 2019 (GMT -0600)
Middlesboro

Weather History for K1A6 - November, 2019

Change the Weather History Date:

Monday, November 11, 2019

  Actual Average (WUND) Record (WUND)
Temperature  
Mean Temperature 48 °F -  
Max Temperature 63 °F - - (-1)
Min Temperature 33 °F - - (-1)
Degree Days  
Heating Degree Days 17    
Moisture  
Dew Point 42 °F    
Average Humidity 79    
Maximum Humidity 100    
Minimum Humidity 47    
Precipitation  
Precipitation 0.27 in - - ()
Sea Level Pressure  
Sea Level Pressure 30.06 in    
Wind  
Wind Speed 3 mph (SSW)    
Max Wind Speed 13 mph    
Max Gust Speed 24 mph    
Visibility 9 miles    
Events Rain    
Averages and records for this station are not official NWS values.
T = Trace of Precipitation, MM = Missing Value Source: NWS Daily Summary

Daily Weather History Graph

Daily Weather History Graph

Search for Another Location

Airport or City:

Astronomy

Nov. 11, 2019 Rise Set
Actual Time 6:08 AM CST 4:29 PM CST
Civil Twilight 5:41 AM CST 4:56 PM CST
Nautical Twilight 5:10 AM CST 5:27 PM CST
Astronomical Twilight 4:39 AM CST 5:57 PM CST
Moon 4:21 PM CST 5:01 AM CST
Length of Visible Light 11h 15m
Length of Day
10h 20m
Waxing Gibbous, 99% of the Moon is Illuminated
Nov 11
Waxing Gibbous
Nov 12
Full
Nov 19
Last Quarter
Nov 26
New
Dec 4
First Quarter

Hourly Weather History & Observations

Time (CST) Temp. Windchill Dew Point Humidity Pressure Visibility Wind Dir Wind Speed Gust Speed Precip Events Conditions
12:15 AM 37.6 °F - 37.6 °F 100% 30.11 in 10.0 mi Calm Calm - N/A   Clear
12:35 AM 37.6 °F - 37.4 °F 99% 30.12 in 10.0 mi Calm Calm - N/A   Clear
12:55 AM 36.5 °F - 36.5 °F 100% 30.12 in 10.0 mi Calm Calm - N/A   Clear
1:15 AM 36.9 °F - 36.9 °F 100% 30.12 in 10.0 mi Calm Calm - N/A   Clear
1:35 AM 36.7 °F - 36.7 °F 100% 30.11 in 10.0 mi Calm Calm - N/A   Clear
2:15 AM 35.6 °F - 35.6 °F 100% 30.12 in 10.0 mi Calm Calm - N/A   Clear
2:35 AM 35.8 °F - 35.8 °F 100% 30.12 in 10.0 mi Calm Calm - N/A   Clear
2:55 AM 35.2 °F - 35.2 °F 100% 30.12 in 10.0 mi Calm Calm - N/A   Clear
3:15 AM 34.9 °F - 34.9 °F 100% 30.12 in 7.0 mi Calm Calm - N/A   Clear
3:35 AM 34.3 °F - 34.3 °F 100% 30.13 in 10.0 mi Calm Calm - N/A   Clear
4:35 AM 34.7 °F - 34.7 °F 100% 30.14 in 10.0 mi Calm Calm - N/A   Clear
4:55 AM 33.4 °F - 33.4 °F 100% 30.14 in 10.0 mi Calm Calm - N/A   Clear
5:35 AM 33.8 °F - 33.8 °F 100% 30.14 in 10.0 mi Calm Calm - N/A   Clear
5:55 AM 34.7 °F - 34.7 °F 100% 30.14 in 10.0 mi Calm Calm - N/A   Clear
6:15 AM 34.2 °F - 34.2 °F 100% 30.14 in 10.0 mi Calm Calm - N/A   Clear
6:35 AM 35.1 °F - 35.1 °F 100% 30.14 in 10.0 mi Calm Calm - N/A   Clear
6:55 AM 35.1 °F - 35.1 °F 100% 30.14 in 10.0 mi Calm Calm - N/A   Clear
7:35 AM 37.4 °F - 37.4 °F 100% 30.15 in 10.0 mi Calm Calm - N/A   Clear
7:55 AM 39.6 °F - 39.6 °F 100% 30.14 in 10.0 mi Calm Calm - N/A   Clear
8:35 AM 46.0 °F - 41.5 °F 84% 30.14 in 10.0 mi Calm Calm - N/A   Clear
9:15 AM 52.5 °F - 42.6 °F 69% 30.12 in 10.0 mi Calm Calm - N/A   Clear
9:35 AM 56.5 °F - 43.0 °F 61% 30.11 in 10.0 mi South 5.8 mph - N/A   Clear
9:55 AM 57.2 °F - 42.1 °F 57% 30.10 in 10.0 mi South 4.6 mph - N/A   Clear
10:15 AM 57.6 °F - 42.6 °F 57% 30.09 in 10.0 mi South 8.1 mph - N/A   Clear
10:35 AM 58.3 °F - 43.0 °F 57% 30.08 in 10.0 mi South 11.5 mph - N/A   Clear
10:55 AM 59.2 °F - 43.2 °F 55% 30.07 in 10.0 mi South 11.5 mph 16.1 mph N/A   Clear
11:15 AM 60.4 °F - 43.2 °F 53% 30.07 in 10.0 mi South 9.2 mph - N/A   Clear
11:35 AM 61.5 °F - 43.3 °F 51% 30.05 in 10.0 mi South 9.2 mph 16.1 mph N/A   Clear
11:55 AM 62.4 °F - 43.2 °F 49% 30.03 in 10.0 mi SSE 9.2 mph 16.1 mph N/A   Clear
12:15 PM 62.6 °F - 42.8 °F 48% 30.02 in 10.0 mi South 9.2 mph - N/A   Clear
12:35 PM 61.9 °F - 42.8 °F 50% 30.02 in 10.0 mi South 6.9 mph 16.1 mph N/A   Clear
1:15 PM 63.1 °F - 42.8 °F 47% 30.01 in 10.0 mi South 10.4 mph - N/A   Clear
1:35 PM 62.6 °F - 42.8 °F 48% 30.01 in 10.0 mi South 6.9 mph - N/A   Clear
1:55 PM 62.6 °F - 43.0 °F 49% 30.00 in 10.0 mi South 8.1 mph - N/A   Clear
2:15 PM 62.1 °F - 43.0 °F 50% 29.99 in 10.0 mi South 5.8 mph - N/A   Clear
2:35 PM 61.9 °F - 43.0 °F 50% 29.99 in 10.0 mi South 9.2 mph - N/A   Clear
2:55 PM 61.2 °F - 43.2 °F 52% 29.99 in 10.0 mi SSW 10.4 mph - N/A   Mostly Cloudy
3:15 PM 60.8 °F - 43.0 °F 52% 29.99 in 10.0 mi South 6.9 mph - N/A   Overcast
4:15 PM 59.9 °F - 43.0 °F 54% 29.98 in 10.0 mi South 4.6 mph - N/A   Mostly Cloudy
4:35 PM 59.2 °F - 44.4 °F 58% 29.98 in 10.0 mi SSW 5.8 mph - N/A Rain Light Rain
4:55 PM 57.7 °F - 45.5 °F 64% 29.98 in 10.0 mi SSW 8.1 mph - N/A   Overcast
5:15 PM 57.7 °F - 45.3 °F 63% 29.99 in 10.0 mi South 4.6 mph - N/A   Overcast
5:35 PM 57.9 °F - 45.1 °F 62% 29.99 in 10.0 mi South 8.1 mph - N/A   Overcast
5:55 PM 57.6 °F - 45.0 °F 63% 29.99 in 10.0 mi South 5.8 mph - N/A   Overcast
6:15 PM 57.6 °F - 45.0 °F 63% 29.99 in 10.0 mi South 8.1 mph - N/A   Overcast
6:35 PM 57.0 °F - 45.7 °F 66% 29.99 in 10.0 mi South 4.6 mph - N/A Rain Rain
6:55 PM 54.9 °F - 47.7 °F 77% 29.99 in 5.0 mi Calm Calm - 0.02 in Rain Rain
7:15 PM 53.8 °F - 48.9 °F 84% 29.99 in 10.0 mi Calm Calm - 0.01 in Rain Light Rain
7:35 PM 52.0 °F - 52.0 °F 100% 29.98 in 7.0 mi Calm Calm - 0.03 in Rain Rain
7:55 PM 51.3 °F - 51.3 °F 100% 29.99 in 7.0 mi Calm Calm - 0.05 in Rain Rain
8:35 PM 50.9 °F - 50.9 °F 100% 29.99 in 7.0 mi Calm Calm - 0.04 in Rain Light Rain
8:55 PM 51.1 °F - 51.1 °F 100% 29.99 in 5.0 mi Calm Calm - 0.07 in Rain Rain
9:15 PM 51.1 °F - 51.1 °F 100% 29.99 in 4.0 mi Calm Calm - 0.02 in Rain Light Rain
9:55 PM 50.9 °F - 50.9 °F 100% 30.00 in 3.0 mi NW 12.7 mph 18.4 mph 0.04 in   Heavy Drizzle
10:15 PM 46.0 °F 41.0 °F 43.2 °F 90% 30.03 in 7.0 mi West 10.4 mph 24.2 mph 0.02 in Rain Light Rain
10:35 PM 44.2 °F 38.4 °F 41.2 °F 89% 30.04 in 10.0 mi WNW 11.5 mph 20.7 mph 0.04 in Rain Rain
10:55 PM 43.7 °F 39.1 °F 41.0 °F 90% 30.06 in 10.0 mi WNW 8.1 mph - 0.06 in Rain Light Rain
11:15 PM 42.8 °F 39.3 °F 40.3 °F 91% 30.06 in 10.0 mi WNW 5.8 mph - 0.01 in Rain Light Rain
11:35 PM 41.9 °F - 39.7 °F 92% 30.07 in 10.0 mi Calm Calm - 0.02 in Rain Light Rain
11:55 PM 41.2 °F 39.2 °F 38.5 °F 90% 30.08 in 10.0 mi North 3.5 mph - 0.03 in Rain Light Rain